Location: ???? ????
(31.2831°N, 45.5190°E)
Time: 05:10:45
(UTC+00:00)

Nadezhda 1 Rocket - Pass Details

Date: 24 February 2021
Orbit: 942 x 1005 km, 83.0° (Epoch: 14 April)

Event Time Altitude Azimuth Distance (km) Brightness Sun altitude
Rises 15:03:22 0° 352° (N) 3,696 7.0 -3.1°
Reaches altitude 10° 15:05:53 10° 352° (N) 2,752 6.4 -3.7°
Maximum altitude 15:12:12 80° 267° (W) 1,016 4.3 -5.0°
Drops below altitude 10° 15:18:34 10° 180° (S) 2,766 6.5 -6.4°
Sets 15:21:06 0° 179° (S) 3,714 7.1 -6.9°
